Time,TemperatureF,DewpointF,PressureIn,WindDirection,WindDirectionDegrees,WindSpeedMPH,WindSpeedGustMPH,Humidity,HourlyPrecipIn,Conditions,Clouds,dailyrainin,SoftwareType,DateUTC
2013-06-01 00:03:00,72.0,60.0,30.00,SW,235,2.0,5.0,66,0.00,,,0.00,,2013-06-01 04:03:00,
2013-06-01 00:12:00,72.0,60.0,29.99,WNW,286,1.0,3.0,66,0.00,,,0.00,,2013-06-01 04:12:00,
2013-06-01 00:23:00,72.0,60.0,29.99,WNW,286,1.0,3.0,66,0.00,,,0.00,,2013-06-01 04:23:00,
2013-06-01 00:33:00,72.0,60.0,29.99,SSE,151,1.0,2.0,66,0.00,,,0.00,,2013-06-01 04:33:00,
2013-06-01 00:42:00,72.0,60.0,29.99,West,273,2.0,5.0,65,0.00,,,0.00,,2013-06-01 04:42:00,
2013-06-01 00:53:00,72.0,60.0,29.99,West,273,2.0,5.0,65,0.00,,,0.00,,2013-06-01 04:53:00,
2013-06-01 01:02:00,72.0,60.0,29.99,NNW,331,1.0,3.0,66,0.00,,,0.00,,2013-06-01 05:02:00,
2013-06-01 01:12:00,72.0,60.0,29.99,NNW,331,1.0,3.0,66,0.00,,,0.00,,2013-06-01 05:12:00,
2013-06-01 01:22:00,72.0,60.0,29.99,SSW,192,0.0,1.0,66,0.00,,,0.00,,2013-06-01 05:22:00,
2013-06-01 01:32:00,71.0,59.0,29.99,NNW,327,0.0,1.0,66,0.00,,,0.00,,2013-06-01 05:32:00,
2013-06-01 01:42:00,71.0,59.0,29.98,SSW,193,0.0,1.0,67,0.00,,,0.00,,2013-06-01 05:42:00,
2013-06-01 01:52:00,71.0,59.0,29.98,SSW,193,0.0,1.0,67,0.00,,,0.00,,2013-06-01 05:52:00,
2013-06-01 02:01:00,71.0,60.0,29.98,SSW,197,0.0,2.0,68,0.00,,,0.00,,2013-06-01 06:01:00,
2013-06-01 02:12:00,71.0,60.0,29.98,SSW,192,1.0,2.0,68,0.00,,,0.00,,2013-06-01 06:12:00,
2013-06-01 02:22:00,71.0,60.0,29.98,SSW,192,1.0,2.0,68,0.00,,,0.00,,2013-06-01 06:22:00,
2013-06-01 02:32:00,71.0,60.0,29.98,NW,322,0.0,1.0,69,0.00,,,0.00,,2013-06-01 06:32:00,
2013-06-01 02:42:00,70.0,59.0,29.98,SSW,201,1.0,2.0,69,0.00,,,0.00,,2013-06-01 06:42:00,
2013-06-01 02:52:00,70.0,59.0,29.98,SSW,201,1.0,2.0,69,0.00,,,0.00,,2013-06-01 06:52:00,
2013-06-01 03:01:00,70.0,60.0,29.98,SSW,195,0.0,1.0,70,0.00,,,0.00,,2013-06-01 07:01:00,
2013-06-01 03:11:00,70.0,60.0,29.98,SSW,195,0.0,1.0,70,0.00,,,0.00,,2013-06-01 07:11:00,
2013-06-01 03:22:00,70.0,60.0,29.98,South,169,1.0,2.0,70,0.00,,,0.00,,2013-06-01 07:22:00,
2013-06-01 03:32:00,70.0,60.0,29.98,SW,214,1.0,2.0,71,0.00,,,0.00,,2013-06-01 07:32:00,
2013-06-01 03:42:00,69.0,60.0,29.98,South,191,1.0,2.0,73,0.00,,,0.00,,2013-06-01 07:42:00,
2013-06-01 03:52:00,69.0,60.0,29.98,South,191,1.0,2.0,73,0.00,,,0.00,,2013-06-01 07:52:00,
2013-06-01 04:02:00,70.0,61.0,29.97,SE,143,1.0,2.0,72,0.00,,,0.00,,2013-06-01 08:02:00,
2013-06-01 04:11:00,69.0,60.0,29.96,SSE,158,0.0,2.0,72,0.00,,,0.00,,2013-06-01 08:11:00,
2013-06-01 04:22:00,69.0,60.0,29.96,SSE,158,0.0,2.0,72,0.00,,,0.00,,2013-06-01 08:22:00,
2013-06-01 04:32:00,69.0,60.0,29.96,East,98,1.0,3.0,73,0.00,,,0.00,,2013-06-01 08:32:00,
2013-06-01 04:42:00,69.0,60.0,29.96,SSE,158,1.0,3.0,74,0.00,,,0.00,,2013-06-01 08:42:00,
2013-06-01 04:52:00,69.0,60.0,29.96,SSE,158,1.0,3.0,74,0.00,,,0.00,,2013-06-01 08:52:00,
2013-06-01 05:01:00,69.0,60.0,29.96,West,275,2.0,2.0,73,0.00,,,0.00,,2013-06-01 09:01:00,
2013-06-01 05:12:00,69.0,60.0,29.96,West,275,2.0,2.0,73,0.00,,,0.00,,2013-06-01 09:12:00,
2013-06-01 05:21:00,69.0,60.0,29.98,SSW,206,2.0,5.0,74,0.00,,,0.00,,2013-06-01 09:21:00,
2013-06-01 05:33:00,69.0,60.0,29.98,NW,304,2.0,5.0,74,0.00,,,0.00,,2013-06-01 09:33:00,
2013-06-01 05:42:00,69.0,60.0,29.98,NW,304,2.0,5.0,74,0.00,,,0.00,,2013-06-01 09:42:00,
2013-06-01 05:53:00,68.0,60.0,29.98,ESE,116,0.0,2.0,76,0.00,,,0.00,,2013-06-01 09:53:00,
2013-06-01 06:02:00,68.0,60.0,29.99,NW,321,0.0,0.0,76,0.00,,,0.00,,2013-06-01 10:02:00,
2013-06-01 06:13:00,68.0,60.0,29.99,NW,321,0.0,0.0,76,0.00,,,0.00,,2013-06-01 10:13:00,
2013-06-01 06:22:00,67.0,60.0,29.99,SSW,206,0.0,1.0,77,0.00,,,0.00,,2013-06-01 10:22:00,
2013-06-01 06:33:00,67.0,60.0,29.99,SSE,164,0.0,0.0,78,0.00,,,0.00,,2013-06-01 10:33:00,
2013-06-01 06:42:00,67.0,60.0,29.99,ENE,68,0.0,0.0,78,0.00,,,0.00,,2013-06-01 10:42:00,
2013-06-01 06:52:00,67.0,60.0,29.99,ENE,68,0.0,0.0,78,0.00,,,0.00,,2013-06-01 10:52:00,
2013-06-01 07:02:00,67.0,60.0,29.99,ENE,68,0.0,1.0,79,0.00,,,0.00,,2013-06-01 11:02:00,
2013-06-01 07:11:00,67.0,60.0,29.99,ENE,68,0.0,1.0,79,0.00,,,0.00,,2013-06-01 11:11:00,
2013-06-01 07:21:00,67.0,61.0,29.99,ESE,110,0.0,1.0,80,0.00,,,0.00,,2013-06-01 11:21:00,
2013-06-01 07:32:00,68.0,62.0,29.99,ESE,112,0.0,0.0,80,0.00,,,0.00,,2013-06-01 11:32:00,
2013-06-01 07:42:00,68.0,62.0,29.99,ESE,112,0.0,0.0,80,0.00,,,0.00,,2013-06-01 11:42:00,
2013-06-01 07:52:00,68.0,62.0,30.00,WSW,248,0.0,0.0,80,0.00,,,0.00,,2013-06-01 11:52:00,
2013-06-01 08:01:00,69.0,63.0,30.00,South,180,0.0,1.0,81,0.00,,,0.00,,2013-06-01 12:01:00,
2013-06-01 08:12:00,69.0,63.0,30.00,South,180,0.0,1.0,81,0.00,,,0.00,,2013-06-01 12:12:00,
2013-06-01 08:22:00,70.0,63.0,30.00,WSW,244,1.0,2.0,79,0.00,,,0.00,,2013-06-01 12:22:00,
2013-06-01 08:32:00,70.0,63.0,30.00,WSW,248,2.0,3.0,78,0.00,,,0.00,,2013-06-01 12:32:00,
2013-06-01 08:42:00,71.0,63.0,29.99,West,265,1.0,2.0,76,0.00,,,0.00,,2013-06-01 12:42:00,
2013-06-01 08:52:00,71.0,63.0,29.99,West,265,1.0,2.0,76,0.00,,,0.00,,2013-06-01 12:52:00,
2013-06-01 09:01:00,72.0,64.0,30.00,South,191,2.0,5.0,76,0.00,,,0.00,,2013-06-01 13:01:00,
2013-06-01 09:11:00,72.0,64.0,30.00,South,191,2.0,5.0,76,0.00,,,0.00,,2013-06-01 13:11:00,
2013-06-01 09:22:00,73.0,65.0,30.00,WSW,246,2.0,3.0,75,0.00,,,0.00,,2013-06-01 13:22:00,
2013-06-01 09:32:00,73.0,64.0,30.00,South,191,2.0,3.0,74,0.00,,,0.00,,2013-06-01 13:32:00,
2013-06-01 09:42:00,74.0,64.0,30.00,West,261,4.0,7.0,71,0.00,,,0.00,,2013-06-01 13:42:00,
2013-06-01 09:52:00,74.0,64.0,30.00,West,261,4.0,7.0,71,0.00,,,0.00,,2013-06-01 13:52:00,
2013-06-01 10:02:00,74.0,64.0,29.99,SW,226,3.0,5.0,70,0.00,,,0.00,,2013-06-01 14:02:00,
2013-06-01 10:11:00,74.0,64.0,29.99,SW,226,3.0,5.0,70,0.00,,,0.00,,2013-06-01 14:11:00,
2013-06-01 10:21:00,75.0,65.0,29.99,SE,145,2.0,3.0,70,0.00,,,0.00,,2013-06-01 14:21:00,
2013-06-01 10:32:00,76.0,65.0,29.99,SW,226,2.0,5.0,69,0.00,,,0.00,,2013-06-01 14:32:00,
2013-06-01 10:42:00,76.0,65.0,29.99,SW,226,2.0,5.0,69,0.00,,,0.00,,2013-06-01 14:42:00,
2013-06-01 10:52:00,77.0,66.0,29.99,West,270,2.0,5.0,68,0.00,,,0.00,,2013-06-01 14:52:00,
2013-06-01 11:02:00,77.0,65.0,29.99,WSW,258,3.0,7.0,66,0.00,,,0.00,,2013-06-01 15:02:00,
2013-06-01 11:11:00,77.0,65.0,29.99,WSW,258,3.0,7.0,66,0.00,,,0.00,,2013-06-01 15:11:00,
2013-06-01 11:21:00,79.0,65.0,29.99,West,259,5.0,9.0,63,0.00,,,0.00,,2013-06-01 15:21:00,
2013-06-01 11:33:00,79.0,65.0,29.99,WSW,237,3.0,5.0,62,0.00,,,0.00,,2013-06-01 15:33:00,
2013-06-01 11:43:00,79.0,65.0,29.99,WSW,237,3.0,5.0,62,0.00,,,0.00,,2013-06-01 15:43:00,
2013-06-01 11:54:00,80.0,66.0,29.98,WSW,248,5.0,8.0,63,0.00,,,0.00,,2013-06-01 15:54:00,
2013-06-01 12:03:00,80.0,66.0,29.97,West,260,3.0,8.0,62,0.00,,,0.00,,2013-06-01 16:03:00,
2013-06-01 12:12:00,80.0,66.0,29.97,West,260,3.0,8.0,62,0.00,,,0.00,,2013-06-01 16:12:00,
2013-06-01 12:23:00,82.0,68.0,29.96,WSW,258,2.0,8.0,62,0.00,,,0.00,,2013-06-01 16:23:00,
2013-06-01 12:33:00,82.0,66.0,29.96,West,274,3.0,8.0,58,0.00,,,0.00,,2013-06-01 16:33:00,
2013-06-01 12:42:00,83.0,66.0,29.96,WSW,257,5.0,8.0,57,0.00,,,0.00,,2013-06-01 16:42:00,
2013-06-01 12:52:00,83.0,66.0,29.96,WSW,257,5.0,8.0,57,0.00,,,0.00,,2013-06-01 16:52:00,
2013-06-01 13:02:00,84.0,67.0,29.97,WSW,248,5.0,10.0,56,0.00,,,0.00,,2013-06-01 17:02:00,
2013-06-01 13:12:00,84.0,67.0,29.97,WSW,248,5.0,10.0,56,0.00,,,0.00,,2013-06-01 17:12:00,
2013-06-01 13:22:00,85.0,68.0,29.96,SSW,199,3.0,7.0,56,0.00,,,0.00,,2013-06-01 17:22:00,
2013-06-01 13:32:00,86.0,67.0,29.96,West,259,3.0,7.0,54,0.00,,,0.00,,2013-06-01 17:32:00,
2013-06-01 13:42:00,86.0,67.0,29.96,West,259,3.0,7.0,54,0.00,,,0.00,,2013-06-01 17:42:00,
2013-06-01 13:52:00,86.0,67.0,29.96,WSW,248,5.0,9.0,54,0.00,,,0.00,,2013-06-01 17:52:00,
2013-06-01 14:01:00,87.0,70.0,29.96,SSW,200,2.0,7.0,57,0.00,,,0.00,,2013-06-01 18:01:00,
2013-06-01 14:12:00,87.0,70.0,29.96,SSW,200,2.0,7.0,57,0.00,,,0.00,,2013-06-01 18:12:00,
2013-06-01 14:22:00,88.0,68.0,29.96,South,185,5.0,10.0,52,0.00,,,0.00,,2013-06-01 18:22:00,
2013-06-01 14:32:00,88.0,68.0,29.96,West,260,5.0,10.0,52,0.00,,,0.00,,2013-06-01 18:32:00,
2013-06-01 14:42:00,88.0,68.0,29.96,West,260,5.0,10.0,52,0.00,,,0.00,,2013-06-01 18:42:00,
2013-06-01 14:52:00,89.0,66.0,29.97,WSW,248,6.0,10.0,47,0.00,,,0.00,,2013-06-01 18:52:00,
2013-06-01 15:02:00,90.0,67.0,29.98,South,180,4.0,12.0,47,0.00,,,0.00,,2013-06-01 19:02:00,
2013-06-01 15:11:00,90.0,66.0,30.00,South,191,7.0,12.0,46,0.00,,,0.00,,2013-06-01 19:11:00,
2013-06-01 15:21:00,90.0,66.0,30.00,South,191,7.0,12.0,46,0.00,,,0.00,,2013-06-01 19:21:00,
2013-06-01 15:32:00,91.0,69.0,30.00,West,260,6.0,9.0,48,0.00,,,0.00,,2013-06-01 19:32:00,
2013-06-01 15:42:00,91.0,69.0,30.00,West,260,6.0,9.0,48,0.00,,,0.00,,2013-06-01 19:42:00,
2013-06-01 15:52:00,91.0,67.0,29.99,WSW,248,7.0,10.0,46,0.00,,,0.00,,2013-06-01 19:52:00,
2013-06-01 16:02:00,91.0,69.0,29.99,SW,236,6.0,14.0,49,0.00,,,0.00,,2013-06-01 20:02:00,
2013-06-01 16:12:00,91.0,69.0,29.99,SW,236,6.0,14.0,49,0.00,,,0.00,,2013-06-01 20:12:00,
2013-06-01 16:21:00,91.0,67.0,29.98,WSW,248,7.0,12.0,46,0.00,,,0.00,,2013-06-01 20:21:00,
2013-06-01 16:32:00,90.0,66.0,29.98,SSW,209,6.0,12.0,46,0.00,,,0.00,,2013-06-01 20:32:00,
2013-06-01 16:42:00,91.0,67.0,29.96,WSW,248,6.0,12.0,46,0.00,,,0.00,,2013-06-01 20:42:00,
2013-06-01 16:52:00,91.0,67.0,29.96,WSW,248,6.0,12.0,46,0.00,,,0.00,,2013-06-01 20:52:00,
2013-06-01 17:01:00,91.0,69.0,29.97,West,281,5.0,10.0,48,0.00,,,0.00,,2013-06-01 21:01:00,
2013-06-01 17:11:00,90.0,66.0,29.97,WSW,248,6.0,13.0,45,0.00,,,0.00,,2013-06-01 21:11:00,
2013-06-01 17:22:00,90.0,66.0,29.97,WSW,248,6.0,13.0,45,0.00,,,0.00,,2013-06-01 21:22:00,
2013-06-01 17:33:00,89.0,65.0,29.97,SW,225,5.0,9.0,45,0.00,,,0.00,,2013-06-01 21:33:00,
2013-06-01 17:43:00,89.0,65.0,29.97,SW,225,5.0,9.0,45,0.00,,,0.00,,2013-06-01 21:43:00,
2013-06-01 17:53:00,88.0,66.0,29.96,WNW,293,6.0,13.0,48,0.00,,,0.00,,2013-06-01 21:53:00,
2013-06-01 18:03:00,87.0,64.0,29.96,West,259,6.0,12.0,47,0.00,,,0.00,,2013-06-01 22:03:00,
2013-06-01 18:12:00,86.0,65.0,29.95,South,179,5.0,9.0,50,0.00,,,0.00,,2013-06-01 22:12:00,
2013-06-01 18:23:00,86.0,65.0,29.95,South,179,5.0,9.0,50,0.00,,,0.00,,2013-06-01 22:23:00,
2013-06-01 18:33:00,85.0,65.0,29.95,WSW,248,3.0,7.0,52,0.00,,,0.00,,2013-06-01 22:33:00,
2013-06-01 18:42:00,84.0,66.0,29.90,South,180,5.0,10.0,54,0.00,,,0.00,,2013-06-01 22:42:00,
2013-06-01 18:53:00,84.0,66.0,29.90,South,180,5.0,10.0,54,0.00,,,0.00,,2013-06-01 22:53:00,
2013-06-01 19:02:00,84.0,67.0,29.89,South,185,3.0,6.0,56,0.00,,,0.00,,2013-06-01 23:02:00,
2013-06-01 19:12:00,83.0,66.0,29.88,SW,215,3.0,8.0,57,0.00,,,0.00,,2013-06-01 23:12:00,
2013-06-01 19:22:00,83.0,66.0,29.88,SW,215,3.0,8.0,57,0.00,,,0.00,,2013-06-01 23:22:00,
2013-06-01 19:32:00,83.0,67.0,29.88,South,189,3.0,6.0,58,0.00,,,0.00,,2013-06-01 23:32:00,
2013-06-01 19:42:00,83.0,67.0,29.88,South,189,3.0,6.0,58,0.00,,,0.00,,2013-06-01 23:42:00,
2013-06-01 19:52:00,82.0,66.0,29.88,ESE,112,3.0,7.0,59,0.00,,,0.00,,2013-06-01 23:52:00,
2013-06-01 20:02:00,82.0,66.0,29.89,WSW,248,3.0,6.0,59,0.00,,,0.00,,2013-06-02 00:02:00,
2013-06-01 20:11:00,82.0,66.0,29.89,WSW,248,3.0,6.0,59,0.00,,,0.00,,2013-06-02 00:11:00,
2013-06-01 20:22:00,82.0,67.0,29.88,SW,225,3.0,7.0,60,0.00,,,0.00,,2013-06-02 00:22:00,
2013-06-01 20:32:00,81.0,66.0,29.88,South,180,3.0,3.0,60,0.00,,,0.00,,2013-06-02 00:32:00,
2013-06-01 20:42:00,81.0,66.0,29.88,South,180,3.0,3.0,60,0.00,,,0.00,,2013-06-02 00:42:00,
2013-06-01 20:52:00,81.0,66.0,29.88,South,180,3.0,3.0,60,0.00,,,0.00,,2013-06-02 00:52:00,
2013-06-01 21:01:00,81.0,66.0,29.88,South,180,3.0,3.0,60,0.00,,,0.00,,2013-06-02 01:01:00,
2013-06-01 21:11:00,81.0,66.0,29.88,South,180,3.0,3.0,60,0.00,,,0.00,,2013-06-02 01:11:00,
2013-06-01 21:21:00,81.0,66.0,29.88,South,180,3.0,3.0,60,0.00,,,0.00,,2013-06-02 01:21:00,
2013-06-01 21:32:00,81.0,66.0,29.88,South,180,3.0,3.0,60,0.00,,,0.00,,2013-06-02 01:32:00,
2013-06-01 21:42:00,81.0,66.0,29.88,South,180,3.0,3.0,60,0.00,,,0.00,,2013-06-02 01:42:00,
2013-06-01 21:52:00,81.0,66.0,29.88,South,180,3.0,3.0,60,0.00,,,0.00,,2013-06-02 01:52:00,
2013-06-01 22:01:00,81.0,66.0,29.88,South,180,3.0,3.0,60,0.00,,,0.00,,2013-06-02 02:01:00,
2013-06-01 22:12:00,81.0,66.0,29.88,South,180,3.0,3.0,60,0.00,,,0.00,,2013-06-02 02:12:00,
2013-06-01 22:21:00,81.0,66.0,29.88,South,180,3.0,3.0,60,0.00,,,0.00,,2013-06-02 02:21:00,
2013-06-01 22:32:00,81.0,66.0,29.88,South,180,3.0,3.0,60,0.00,,,0.00,,2013-06-02 02:32:00,
2013-06-01 22:42:00,81.0,66.0,29.88,South,180,3.0,3.0,60,0.00,,,0.00,,2013-06-02 02:42:00,
2013-06-01 22:52:00,81.0,66.0,29.88,South,180,3.0,3.0,60,0.00,,,0.00,,2013-06-02 02:52:00,
2013-06-01 23:02:00,81.0,66.0,29.88,South,180,3.0,3.0,60,0.00,,,0.00,,2013-06-02 03:02:00,
2013-06-01 23:11:00,81.0,66.0,29.88,South,180,3.0,3.0,60,0.00,,,0.00,,2013-06-02 03:11:00,
2013-06-01 23:21:00,81.0,66.0,29.88,South,180,3.0,3.0,60,0.00,,,0.00,,2013-06-02 03:21:00,
2013-06-01 23:33:00,81.0,66.0,29.88,South,180,3.0,3.0,60,0.00,,,0.00,,2013-06-02 03:33:00,
2013-06-01 23:43:00,81.0,66.0,29.88,South,180,3.0,3.0,60,0.00,,,0.00,,2013-06-02 03:43:00,
2013-06-01 23:53:00,81.0,66.0,29.88,South,180,3.0,3.0,60,0.00,,,0.00,,2013-06-02 03:53:00,